Location: Seattle
(47.6064°N, 122.3308°W)
Time: 22:35:02
(UTC-08:00)

Transit 2A Rocket - All Passes

Search period start: 26 November 2020 00:00
Search period end: 06 December 2020 00:00
Orbit: 588 x 914 km, 66.7° (Epoch: 26 November)

Date Brightness Start Highest point End Pass type
(mag) Time Alt. Az. Time Alt. Az. Time Alt. Az.
26 Nov - 00:54:57 10° ESE 00:55:27 10° ESE 00:55:59 10° E night (unlit)
26 Nov - 02:31:12 10° SSW 02:37:06 59° ESE 02:42:38 10° NE visible
26 Nov - 04:14:44 10° WSW 04:20:01 33° NW 04:24:59 10° NNE visible
26 Nov - 06:02:03 10° NW 06:04:19 12° NNW 06:06:30 10° N visible
26 Nov - 09:30:26 10° NNW 09:34:14 20° NNE 09:37:48 10° E daylight
26 Nov - 11:12:35 10° NW 11:17:35 88° SW 11:22:06 10° SSE daylight
26 Nov - 12:57:33 10° W 12:59:10 12° WSW 13:00:46 10° WSW daylight
27 Nov - 01:49:09 10° S 01:54:37 38° ESE 01:59:49 10° NE visible
27 Nov - 03:31:29 10° WSW 03:37:12 47° NW 03:42:33 10° NNE visible
27 Nov - 05:17:50 10° WNW 05:21:07 15° NNW 05:24:16 10° N visible
27 Nov - 08:48:07 10° N 08:51:09 15° NNE 08:54:02 10° ENE daylight
27 Nov - 10:30:00 10° NNW 10:34:56 57° NE 10:39:25 10° SE daylight
27 Nov - 12:13:27 10° WNW 12:17:00 21° WSW 12:20:21 10° SSW daylight
28 Nov - 01:07:36 10° SSE 01:12:15 24° ESE 01:16:43 10° ENE night (unlit)
28 Nov - 02:48:31 10° SW 02:54:29 70° NW 03:00:03 10° NNE visible
28 Nov - 04:33:52 10° WNW 04:38:01 20° NNW 04:41:58 10° NNE visible
28 Nov - 08:05:54 10° N 08:07:58 12° NNE 08:09:58 10° NE daylight
28 Nov - 09:47:30 10° NNW 09:52:10 36° NE 09:56:25 10° ESE daylight
28 Nov - 11:30:17 10° NW 11:34:42 36° WSW 11:38:48 10° S daylight
29 Nov - 00:26:52 10° SE 00:29:59 15° ESE 00:33:02 10° ENE night (unlit)
29 Nov - 02:05:52 10° SSW 02:11:51 79° ESE 02:17:27 10° NE visible
29 Nov - 03:50:09 10° W 03:55:01 27° NW 03:59:37 10° NNE visible
29 Nov - 05:38:11 10° NNW 05:39:31 11° NNW 05:40:51 10° N visible
29 Nov - 07:24:07 10° N 07:24:43 10° NNE 07:25:20 10° NNE daylight
29 Nov - 09:05:05 10° NNW 09:09:15 25° NE 09:13:07 10° E daylight
29 Nov - 10:47:26 10° NW 10:52:18 62° WSW 10:56:43 10° SSE daylight
30 Nov - 01:23:34 10° S 01:29:19 50° ESE 01:34:45 10° NE night (unlit)
30 Nov - 03:06:43 10° WSW 03:12:08 37° NW 03:17:13 10° NNE visible
30 Nov - 04:53:43 10° NW 04:56:17 13° NNW 04:58:46 10° N visible
30 Nov - 08:22:45 10° NNW 08:26:15 18° NNE 08:29:32 10° ENE daylight
30 Nov - 10:04:47 10° NNW 10:09:44 78° NE 10:14:14 10° SE daylight
30 Nov - 11:49:01 10° WNW 11:51:30 14° WSW 11:53:54 10° SW daylight
01 Dec - 00:41:41 10° S 00:46:53 32° ESE 00:51:51 10° NE night (unlit)
01 Dec - 02:23:33 10° SW 02:29:20 54° NW 02:34:45 10° NNE visible
01 Dec - 04:09:34 10° WNW 04:13:07 17° NNW 04:16:31 10° N visible
01 Dec - 07:40:29 10° N 07:43:07 14° NNE 07:45:40 10° NE daylight
01 Dec - 09:22:14 10° NNW 09:27:02 48° NE 09:31:26 10° ESE daylight
01 Dec - 11:05:24 10° NW 11:09:17 25° WSW 11:12:55 10° SSW daylight
02 Dec - 00:00:21 10° SSE 00:04:33 20° ESE 00:08:36 10° ENE night (unlit)
02 Dec - 01:40:42 10° SW 01:46:39 80° NW 01:52:13 10° NNE night (unlit)
02 Dec - 03:25:40 10° W 03:30:03 22° NW 03:34:12 10° NNE visible
02 Dec - 06:58:23 10° N 06:59:55 11° NNE 07:01:25 10° NE visible
02 Dec - 08:39:46 10° NNW 08:44:14 31° NE 08:48:20 10° ESE daylight
02 Dec - 10:22:22 10° NW 10:26:56 43° WSW 10:31:09 10° S daylight
02 Dec - 23:20:13 10° SE 23:22:18 12° ESE 23:24:23 10° E night (unlit)
03 Dec - 00:58:10 10° SSW 01:04:04 68° ESE 01:09:36 10° NE night (unlit)
03 Dec - 02:42:03 10° W 02:47:06 29° NW 02:51:50 10° NNE visible
03 Dec - 04:29:45 10° NW 04:31:28 11° NNW 04:33:08 10° N visible
03 Dec - 07:57:23 10° NNW 08:01:17 22° NE 08:04:56 10° E daylight
03 Dec - 09:39:36 10° NW 09:44:28 75° WSW 09:48:56 10° SSE daylight
04 Dec - 00:16:00 10° S 00:21:34 43° ESE 00:26:49 10° NE night (unlit)
04 Dec - 01:58:42 10° WSW 02:04:15 42° NW 02:09:25 10° NNE night (unlit)
04 Dec - 03:45:24 10° NW 03:48:15 14° NNW 03:51:01 10° N visible
04 Dec - 07:15:04 10° N 07:18:14 16° NNE 07:21:14 10° ENE daylight
04 Dec - 08:56:59 10° NNW 09:01:52 65° NE 09:06:20 10° SE daylight
04 Dec - 10:40:44 10° WNW 10:43:48 17° WSW 10:46:43 10° SSW daylight
04 Dec - 23:34:16 10° SSE 23:39:10 27° ESE 23:43:49 10° NE night (unlit)
05 Dec - 01:15:39 10° SW 01:21:30 62° NW 01:26:56 10° NNE night (unlit)
05 Dec - 03:01:19 10° WNW 03:05:07 18° NNW 03:08:45 10° NNE visible
05 Dec - 06:32:52 10° N 06:35:05 13° NNE 06:37:13 10° NE visible
05 Dec - 08:14:28 10° NNW 08:19:08 40° NE 08:23:25 10° ESE daylight
05 Dec - 09:57:24 10° NW 10:01:32 30° WSW 10:05:24 10° S daylight
05 Dec - 22:53:14 10° SE 22:56:52 17° ESE 23:00:21 10° ENE night (unlit)
